This is the latest recevied weather packets stored in our database for station/object OE5HCE. If no packets are shown the sender has not sent any weather packets the latest 10 day(s).
| Time | Temp. | Humidity | Pressure | Rain* | Wind** | Luminosity | Snow |
|---|---|---|---|---|---|---|---|
| 1777293031 | 20° C | 35% | 1021.6 hPa | 0 mm | - | 751 W/m² | - |
| 1777292129 | 20° C | 37% | 1021.7 hPa | 0 mm | - | 499 W/m² | - |
| 1777291224 | 19.44° C | 36% | 1021.9 hPa | 0 mm | - | 772 W/m² | - |
| 1777290321 | 18.89° C | 40% | 1022 hPa | 0 mm | - | 784 W/m² | - |
| 1777289418 | 18.89° C | 38% | 1022.2 hPa | 0 mm | - | 789 W/m² | - |
| 1777288515 | 17.78° C | 42% | 1022.4 hPa | 0 mm | - | 513 W/m² | - |
| 1777287618 | 17.78° C | 38% | 1022.5 hPa | 0 mm | - | 789 W/m² | - |
| 1777286710 | 17.22° C | 40% | 1022.6 hPa | 0 mm | - | 788 W/m² | - |
| 1777285812 | 16.67° C | 44% | 1022.8 hPa | 0 mm | - | 780 W/m² | - |
| 1777284902 | 16.67° C | 44% | 1023 hPa | 0 mm | - | 766 W/m² | - |
| 1777284073 | 16.11° C | 46% | 1023.1 hPa | 0 mm | - | 759 W/m² | - |
| 1777283165 | 15° C | 47% | 1023.2 hPa | 0 mm | - | 742 W/m² | - |
| 1777282251 | 15° C | 50% | 1023.3 hPa | 0 mm | - | 722 W/m² | - |
| 1777281351 | 14.44° C | 51% | 1023.5 hPa | 0 mm | - | 701 W/m² | - |
| 1777280443 | 13.89° C | 51% | 1023.6 hPa | 0 mm | - | 677 W/m² | - |
| 1777279539 | 13.33° C | 52% | 1023.7 hPa | 0 mm | - | 454 W/m² | - |
| 1777278635 | 12.78° C | 54% | 1023.6 hPa | 0 mm | - | 40 W/m² | - |
| 1777277731 | 12.22° C | 54% | 1023.7 hPa | 0 mm | - | 40 W/m² | - |
| 1777276828 | 11.67° C | 56% | 1023.7 hPa | 0 mm | - | 39 W/m² | - |
| 1777275925 | 11.11° C | 59% | 1023.6 hPa | 0 mm | - | 39 W/m² | - |
| 1777275023 | 10.56° C | 61% | 1023.7 hPa | 0 mm | - | 40 W/m² | - |
| 1777274122 | 10° C | 63% | 1023.8 hPa | 0 mm | - | 283 W/m² | - |
| 1777273221 | 9.44° C | 65% | 1023.7 hPa | 0 mm | - | 420 W/m² | - |
| 1777272316 | 8.89° C | 67% | 1023.7 hPa | 0 mm | - | 381 W/m² | - |
| 1777271414 | 7.78° C | 70% | 1023.7 hPa | 0 mm | - | 345 W/m² | - |
* Rain latest hour (hover to see other rain measurements)
** Current wind speed in m/s (hover to see current wind gust speed)